User: anonymous   Login
Location: Unspecified
(0.0000°N, 0.0000°E)
Time: 15:26:59
(UTC+00:00)
Language:

KEPLER-O (KIPP) - Orbit

View from above orbital plane
View from above orbital plane
View from above satellite
View from above satellite

Ground track
Ground track

The orbit data is extracted from the following two-line orbital elements,

1 43157U 18008C   21333.48004463  .00002345  00000-0  13828-3 0  9997
2 43157  97.3924  33.2744 0016614 112.8092 247.4896 15.12400384212924
Epoch (UTC): 29 November 2021 11:31:15
Eccentricity: 0.0016614
inclination: 97.3924°
perigee height: 517 km
apogee height: 540 km
right ascension of ascending node: 33.2744°
argument of perigee: 112.8092°
revolutions per day: 15.12400384
mean anomaly at epoch: 247.4896°
orbit number at epoch: 21292

The dashed part of the orbit path shows where the satellite is in the earth's shadow,  

DLR